Weather History for PADK - December, 2011

Change the Weather History Date:

Tuesday, December 20, 2011

  Actual Average Record
Temperature  
Mean Temperature 27 °F -  
Max Temperature 30 °F 39 °F 50 °F (1984)
Min Temperature 24 °F 29 °F 13 °F (1993)
Degree Days  
Heating Degree Days 38    
Moisture  
Dew Point 23 °F    
Average Humidity 79    
Maximum Humidity 100    
Minimum Humidity 69    
Precipitation  
Precipitation 0.00 in - - ()
Sea Level Pressure  
Sea Level Pressure 29.47 in    
Wind  
Wind Speed 15 mph (WSW)    
Max Wind Speed 21 mph    
Max Gust Speed 28 mph    
Visibility 10 miles    
Events      
Averages and records for this station are not official NWS values.
T = Trace of Precipitation, MM = Missing Value Source: NWS Daily Summary

Daily Weather History Graph

Daily Weather History Graph

Search for Another Location

Airport or City:

Trip Planner

Search our weather history database for the weather conditions in past years. The results will help you decide how hot, cold, wet, or windy it might be!

Date:

Astronomy

Dec. 20, 2011 Rise Set
Actual Time 9:51 AM HST 5:37 PM HST
Civil Twilight 9:10 AM HST 6:18 PM HST
Nautical Twilight 8:26 AM HST 7:01 PM HST
Astronomical Twilight 7:45 AM HST 7:42 PM HST
Moon 5:14 AM HST (12/20) 2:35 PM HST (12/20)
Length of Visible Light 9h 07m
Length of Day
7h 45m
Waning Crescent, 19% of the Moon is Illuminated
Dec 20
Waning Crescent
Dec 24
New
Dec 31
First Quarter
Jan 8
Full
Jan 15
Last Quarter

Hourly Weather History & Observations

Time (HST) Temp. Windchill Dew Point Humidity Pressure Visibility Wind Dir Wind Speed Gust Speed Precip Events Conditions
12:16 AM 30.2 °F 17.4 °F 26.6 °F 86% 29.37 in 10.0 mi WSW 20.7 mph 24.2 mph N/A   Scattered Clouds
12:36 AM 28.4 °F 16.2 °F 21.2 °F 74% 29.38 in 10.0 mi West 17.3 mph - N/A   Partly Cloudy
12:56 AM 28.4 °F 17.5 °F 21.2 °F 74% 29.39 in 10.0 mi West 13.8 mph - N/A   Clear
1:16 AM 30.2 °F 19.3 °F 30.2 °F 100% 29.40 in 2.0 mi West 15.0 mph 26.5 mph N/A   Mostly Cloudy
1:36 AM 28.4 °F 19.7 °F 26.6 °F 93% 29.41 in 10.0 mi West 9.2 mph - N/A   Mostly Cloudy
1:56 AM 28.4 °F 16.6 °F 24.8 °F 86% 29.41 in 10.0 mi West 16.1 mph - N/A   Clear
2:16 AM 28.4 °F 15.4 °F 26.6 °F 93% 29.41 in 10.0 mi WSW 19.6 mph - N/A   Clear
2:36 AM 28.4 °F 16.6 °F 24.8 °F 86% 29.42 in 10.0 mi West 16.1 mph - N/A   Clear
2:56 AM 28.4 °F 16.6 °F 21.2 °F 74% 29.43 in 10.0 mi West 16.1 mph - N/A   Clear
3:16 AM 28.4 °F 17.0 °F 24.8 °F 86% 29.44 in 10.0 mi WSW 15.0 mph - N/A   Partly Cloudy
3:36 AM 28.4 °F 18.5 °F 24.8 °F 86% 29.44 in 10.0 mi WSW 11.5 mph - N/A   Mostly Cloudy
3:56 AM 30.2 °F 18.1 °F 26.6 °F 86% 29.45 in 10.0 mi West 18.4 mph 23.0 mph N/A   Overcast
4:16 AM 28.4 °F 16.6 °F 24.8 °F 86% 29.45 in 9.0 mi West 16.1 mph - N/A   Mostly Cloudy
4:36 AM 26.6 °F 15.2 °F 21.2 °F 80% 29.45 in 10.0 mi West 13.8 mph - N/A   Clear
4:56 AM 26.6 °F 16.2 °F 21.2 °F 80% 29.45 in 10.0 mi West 11.5 mph - N/A   Clear
5:16 AM 26.6 °F 16.8 °F 21.2 °F 80% 29.46 in 10.0 mi West 10.4 mph - N/A   Clear
5:36 AM 28.4 °F 15.8 °F 23.0 °F 80% 29.45 in 10.0 mi WSW 18.4 mph - N/A   Scattered Clouds
5:56 AM 28.4 °F 17.0 °F 21.2 °F 74% 29.46 in 10.0 mi West 15.0 mph - N/A   Partly Cloudy
6:16 AM 30.2 °F 18.5 °F 21.2 °F 69% 29.46 in 10.0 mi West 17.3 mph - N/A   Partly Cloudy
6:36 AM 30.2 °F 18.9 °F 24.8 °F 80% 29.46 in 10.0 mi West 16.1 mph - N/A   Scattered Clouds
6:56 AM 30.2 °F 17.4 °F 21.2 °F 69% 29.46 in 10.0 mi West 20.7 mph - N/A   Partly Cloudy
7:16 AM 30.2 °F 18.9 °F 21.2 °F 69% 29.47 in 10.0 mi West 16.1 mph - N/A   Clear
7:36 AM 30.2 °F 17.8 °F 23.0 °F 75% 29.47 in 5.0 mi West 19.6 mph 27.6 mph N/A   Mostly Cloudy
7:56 AM 30.2 °F 19.8 °F 23.0 °F 75% 29.47 in 10.0 mi West 13.8 mph - N/A   Mostly Cloudy
8:16 AM 30.2 °F 19.8 °F 23.0 °F 75% 29.48 in 10.0 mi WSW 13.8 mph - N/A   Partly Cloudy
8:36 AM 28.4 °F 18.5 °F 21.2 °F 74% 29.48 in 10.0 mi WSW 11.5 mph - N/A   Partly Cloudy
8:56 AM 28.4 °F 18.5 °F 21.2 °F 74% 29.48 in 10.0 mi West 11.5 mph - N/A   Clear
9:16 AM 26.6 °F 18.2 °F 19.4 °F 74% 29.49 in 10.0 mi West 8.1 mph - N/A   Scattered Clouds
9:36 AM 26.6 °F 16.8 °F 21.2 °F 80% 29.49 in 10.0 mi WSW 10.4 mph - N/A   Partly Cloudy
9:56 AM 28.4 °F 19.7 °F 21.2 °F 74% 29.50 in 10.0 mi West 9.2 mph - N/A   Partly Cloudy
10:16 AM 24.8 °F 14.0 °F 17.6 °F 74% 29.50 in 10.0 mi West 11.5 mph - N/A   Clear
10:36 AM 28.4 °F 18.0 °F 21.2 °F 74% 29.50 in 10.0 mi WSW 12.7 mph - N/A   Clear
10:56 AM 28.4 °F 18.5 °F 21.2 °F 74% 29.51 in 10.0 mi West 11.5 mph - N/A   Clear
11:16 AM 28.4 °F 18.0 °F 21.2 °F 74% 29.51 in 10.0 mi WSW 12.7 mph - N/A   Clear
11:36 AM 28.4 °F 16.6 °F 21.2 °F 74% 29.51 in 10.0 mi WSW 16.1 mph - N/A   Clear
11:56 AM 28.4 °F 16.2 °F 21.2 °F 74% 29.51 in 10.0 mi WSW 17.3 mph - N/A   Clear
12:16 PM 28.4 °F 16.6 °F 21.2 °F 74% 29.52 in 10.0 mi WSW 16.1 mph - N/A   Clear
12:36 PM 28.4 °F 16.6 °F 21.2 °F 74% 29.52 in 10.0 mi WSW 16.1 mph - N/A   Clear
12:56 PM 30.2 °F 18.9 °F 21.2 °F 69% 29.52 in 10.0 mi WSW 16.1 mph - N/A   Clear
1:16 PM 30.2 °F 19.3 °F 21.2 °F 69% 29.52 in 10.0 mi WSW 15.0 mph - N/A   Clear
1:36 PM 28.4 °F 18.5 °F 21.2 °F 74% 29.52 in 10.0 mi WSW 11.5 mph - N/A   Clear
1:56 PM 28.4 °F 18.0 °F 24.8 °F 86% 29.52 in 10.0 mi WSW 12.7 mph - N/A   Partly Cloudy
2:16 PM 28.4 °F 19.1 °F 24.8 °F 86% 29.51 in 10.0 mi WSW 10.4 mph - N/A   Partly Cloudy
2:36 PM 26.6 °F 16.2 °F 23.0 °F 86% 29.51 in 10.0 mi WSW 11.5 mph - N/A   Clear
2:56 PM 28.4 °F 18.5 °F 24.8 °F 86% 29.51 in 10.0 mi WSW 11.5 mph - N/A   Clear
3:16 PM 26.6 °F 19.1 °F 23.0 °F 86% 29.51 in 10.0 mi WSW 6.9 mph - N/A   Partly Cloudy
3:36 PM 28.4 °F 20.4 °F 24.8 °F 86% 29.51 in 10.0 mi SW 8.1 mph - N/A   Clear
3:56 PM 28.4 °F 22.2 °F 24.8 °F 86% 29.51 in 10.0 mi SW 5.8 mph - N/A   Mostly Cloudy
4:16 PM 28.4 °F - 23.0 °F 80% 29.51 in 10.0 mi Calm Calm - N/A   Mostly Cloudy
4:36 PM 28.4 °F - 21.2 °F 74% 29.51 in 10.0 mi Calm Calm - N/A   Overcast
4:56 PM 28.4 °F 24.6 °F 24.8 °F 86% 29.52 in 8.0 mi WSW 3.5 mph - N/A   Overcast
5:16 PM 28.4 °F 23.3 °F 26.6 °F 93% 29.52 in 2.5 mi SW 4.6 mph - N/A   Overcast
5:36 PM 30.2 °F 25.4 °F 26.6 °F 86% 29.52 in 3.0 mi South 4.6 mph - N/A   Overcast
5:56 PM 28.4 °F - 28.4 °F 100% 29.53 in 0.8 mi Calm Calm - N/A   Overcast
6:16 PM 28.4 °F - 28.4 °F 100% 29.52 in 1.5 mi Calm Calm - N/A   Overcast
6:36 PM 24.8 °F - 23.0 °F 93% 29.53 in 0.8 mi Calm Calm - N/A   Overcast
6:56 PM 19.4 °F - 19.4 °F 100% 29.53 in 0.5 mi Calm Calm - N/A   Overcast
7:16 PM 21.2 °F 14.9 °F 21.2 °F 100% 29.53 in 7.0 mi WSW 4.6 mph - N/A   Mostly Cloudy
7:36 PM 21.2 °F - 21.2 °F 100% 29.53 in 9.0 mi Calm Calm - N/A   Mostly Cloudy
7:56 PM 19.4 °F 14.3 °F 17.6 °F 93% 29.52 in 2.0 mi WSW 3.5 mph - N/A   Mostly Cloudy
8:16 PM 17.6 °F - 17.6 °F 100% 29.53 in 0.5 mi Calm Calm - N/A   Mostly Cloudy
8:36 PM 15.8 °F 7.2 °F 12.2 °F 86% 29.54 in 3.0 mi SW 5.8 mph - N/A   Partly Cloudy
8:56 PM 17.6 °F 12.3 °F 15.8 °F 93% 29.54 in 10.0 mi WSW 3.5 mph - N/A   Scattered Clouds
9:16 PM 19.4 °F - 19.4 °F 100% 29.54 in 1.0 mi Calm Calm - N/A   Mostly Cloudy
9:36 PM 17.6 °F - 17.6 °F 100% 29.54 in 3.0 mi Calm Calm - N/A   Partly Cloudy
9:56 PM 15.8 °F - 14.0 °F 93% 29.54 in 1.8 mi Calm Calm - N/A   Scattered Clouds
10:16 PM 14.0 °F 5.1 °F 12.2 °F 93% 29.54 in 7.0 mi WSW 5.8 mph - N/A   Mostly Cloudy
10:36 PM 15.8 °F 8.6 °F 12.2 °F 86% 29.54 in 10.0 mi SW 4.6 mph - N/A   Scattered Clouds
10:56 PM 15.8 °F 7.2 °F 14.0 °F 93% 29.54 in 10.0 mi SW 5.8 mph - N/A   Partly Cloudy
11:16 PM 17.6 °F 10.7 °F 17.6 °F 100% 29.55 in 10.0 mi WSW 4.6 mph - N/A   Clear
11:36 PM 17.6 °F 9.3 °F 17.6 °F 100% 29.55 in 10.0 mi SW 5.8 mph - N/A   Clear
11:56 PM 19.4 °F 9.5 °F 19.4 °F 100% 29.55 in 10.0 mi SSW 8.1 mph - N/A   Clear